Change the Weather History Date:

Tuesday, April 9, 2013

  Actual Average Record
Temperature  
Mean Temperature 59 °F -  
Max Temperature 75 °F 62 °F 87 °F (2011)
Min Temperature 39 °F 36 °F 19 °F (1982)
Degree Days  
Heating Degree Days 6    
Growing Degree Days 9 (Base 50)    
Moisture  
Dew Point 52 °F    
Average Humidity 82    
Maximum Humidity 93    
Minimum Humidity 62    
Precipitation  
Precipitation 0.09 in - - ()
Sea Level Pressure  
Sea Level Pressure 29.70 in    
Wind  
Wind Speed 13 mph (North)    
Max Wind Speed 31 mph    
Max Gust Speed 38 mph    
Visibility 9 miles    
Events Rain    
Averages and records for this station are not official NWS values.
T = Trace of Precipitation, MM = Missing Value Source: NWS Daily Summary

Daily Weather History Graph

Daily Weather History Graph

Search for Another Location

Airport or City:

Trip Planner

Search our weather history database for the weather conditions in past years. The results will help you decide how hot, cold, wet, or windy it might be!

Date:

Astronomy

Apr. 09, 2013 Rise Set
Actual Time 6:53 AM CDT 7:55 PM CDT
Civil Twilight 6:25 AM CDT 8:22 PM CDT
Nautical Twilight 5:52 AM CDT 8:56 PM CDT
Astronomical Twilight 5:18 AM CDT 9:30 PM CDT
Moon 6:16 AM CDT (4/9) 7:31 PM CDT (4/9)
Length of Visible Light 13h 57m
Length of Day
13h 01m
Waning Crescent, 1% of the Moon is Illuminated
Apr 9
Waning Crescent
Apr 10
New
Apr 18
First Quarter
Apr 25
Full
May 2
Last Quarter

Hourly Weather History & Observations

Time (CDT) Temp. Windchill Dew Point Humidity Pressure Visibility Wind Dir Wind Speed Gust Speed Precip Events Conditions
12:53 AM 64.0 °F - 57.9 °F 80% 29.65 in 10.0 mi ESE 8.1 mph - N/A   Overcast
1:53 AM 64.0 °F - 57.9 °F 80% 29.62 in 10.0 mi SSE 12.7 mph - N/A   Overcast
2:53 AM 64.0 °F - 57.9 °F 80% 29.60 in 10.0 mi SE 12.7 mph - N/A   Overcast
3:53 AM 64.0 °F - 57.9 °F 80% 29.59 in 10.0 mi SE 10.4 mph - N/A   Overcast
4:53 AM 64.0 °F - 57.9 °F 80% 29.59 in 10.0 mi SE 11.5 mph - N/A   Overcast
5:53 AM 64.0 °F - 57.9 °F 80% 29.60 in 10.0 mi SSE 12.7 mph - N/A   Overcast
6:53 AM 64.0 °F - 57.9 °F 80% 29.60 in 10.0 mi SSE 13.8 mph - N/A   Overcast
7:53 AM 64.0 °F - 57.9 °F 80% 29.67 in 6.0 mi South 6.9 mph - 0.01 in Rain Light Rain
8:53 AM 66.0 °F - 60.1 °F 81% 29.66 in 10.0 mi SSE 15.0 mph - 0.00 in   Partly Cloudy
9:53 AM 69.1 °F - 60.1 °F 73% 29.67 in 10.0 mi South 17.3 mph 26.5 mph N/A   Clear
10:53 AM 71.1 °F - 61.0 °F 70% 29.67 in 10.0 mi South 18.4 mph 24.2 mph N/A   Mostly Cloudy
11:53 AM 73.0 °F - 61.0 °F 66% 29.68 in 10.0 mi South 13.8 mph 25.3 mph N/A   Mostly Cloudy
12:53 PM 75.0 °F - 61.0 °F 62% 29.67 in 10.0 mi SSW 12.7 mph 20.7 mph N/A   Mostly Cloudy
1:20 PM 59.0 °F - 51.8 °F 77% 29.70 in 6.0 mi NNW 20.7 mph 26.5 mph N/A   Haze
1:35 PM 57.2 °F - 51.8 °F 82% 29.71 in 4.0 mi NNW 15.0 mph 21.9 mph N/A   Haze
1:53 PM 54.0 °F - 48.9 °F 83% 29.71 in 6.0 mi NW 17.3 mph 21.9 mph N/A   Haze
2:40 PM 53.6 °F - 48.2 °F 82% 29.73 in 4.0 mi NNW 16.1 mph 20.7 mph N/A   Haze
2:53 PM 52.0 °F - 46.9 °F 83% 29.73 in 4.0 mi NNW 12.7 mph 21.9 mph N/A   Haze
3:53 PM 50.0 °F - 46.0 °F 86% 29.73 in 10.0 mi North 10.4 mph - N/A   Overcast
4:53 PM 48.9 °F - 45.0 °F 86% 29.73 in 10.0 mi North 12.7 mph - N/A   Overcast
5:53 PM 48.9 °F - 45.0 °F 86% 29.73 in 10.0 mi North 11.5 mph - N/A   Overcast
6:53 PM 48.0 °F - 45.0 °F 89% 29.73 in 10.0 mi NNE 6.9 mph - N/A   Overcast
7:53 PM 46.0 °F 39.0 °F 44.1 °F 93% 29.78 in 10.0 mi NNW 17.3 mph 23.0 mph 0.04 in Rain Light Rain
8:53 PM 45.0 °F 38.5 °F 42.1 °F 90% 29.79 in 9.0 mi North 13.8 mph 19.6 mph 0.02 in Rain Light Rain
9:53 PM 45.0 °F 38.2 °F 43.0 °F 93% 29.83 in 10.0 mi NNW 15.0 mph - 0.02 in Rain Light Rain
10:53 PM 43.0 °F 35.7 °F 41.0 °F 93% 29.83 in 10.0 mi North 15.0 mph 27.6 mph 0.00 in   Overcast
11:53 PM 39.9 °F 28.2 °F 37.9 °F 93% 29.95 in 8.0 mi West 31.1 mph 38.0 mph N/A   Overcast